#timestamp,LO_Frequency,Hit,StdDev 
1593662415.6,286046998.9,N
1593662435.4,286047003.8,N
1593662455.3,286047001.6,N
1593662475.1,286047001.1,N
1593662476.0,286047001.1,N
1593662495.8,286046998.5,N
1593662515.7,286046996.8,N
1593662535.5,286046998.4,N
1593662555.3,286046997.0,N
1593662575.2,286046994.7,N
1593662595.0,286046992.1,N
1593662595.9,286046992.1,N
1593662615.8,286046994.4,N
1593662635.6,286046994.7,N
1593662655.4,286046990.3,N
1593662675.3,286046991.6,N
1593662695.1,286046989.2,N
1593662715.8,286046991.0,N
1593662735.7,286046994.0,N
1593662755.5,286046991.8,N
1593662775.4,286046992.1,N
1593662795.2,286046992.9,N
1593662815.0,286046986.9,N
1593662815.9,286046986.9,N
1593662835.8,286046986.3,N
1593662855.6,286046984.4,N
1593662875.4,286046985.4,N
1593662895.3,286046983.8,N
1593662915.1,286046987.6,N
1593662935.9,286046990.3,N
1593662955.7,286046991.2,N
1593662975.5,286046987.1,N
1593662995.4,286046989.4,N
1593663015.2,286046990.2,N
1593663035.0,286046994.1,N
1593663035.9,286046994.1,N
1593663055.8,286046993.6,N
1593663075.6,286046993.7,N
1593663095.5,286046995.8,N
1593663115.3,286046999.0,N
1593663135.1,286047001.5,N
1593663155.9,286047003.7,N
1593663175.7,286047001.3,N
1593663195.5,286047002.5,N
1593663215.4,286047003.4,N
1593663235.2,286047002.8,N
1593663255.1,286047002.2,N
1593663256.0,286047002.2,N
1593663275.8,286046999.3,N
1593663295.6,286046997.8,N
1593663315.5,286046997.8,N
1593663335.3,286046997.9,N
1593663355.1,286046999.5,N
1593663375.9,286046999.5,N
1593663395.7,286046996.1,N
1593663415.6,286046996.2,N
1593663435.4,286046991.9,N
1593663455.2,286046992.7,N
1593663475.1,286046989.1,N
1593663476.0,286046989.1,N
1593663495.8,286046986.9,N
1593663515.6,286046985.7,N
1593663535.5,286046987.0,N
1593663555.3,286046990.2,N
1593663575.2,286046985.9,N
1593663595.9,286046983.9,N
1593663615.7,286046987.6,N
1593663635.6,286046988.6,N
1593663655.4,286046991.8,N
1593663675.2,286046996.9,N
1593663695.1,286047001.2,N
1593663696.0,286047001.2,N
1593663715.8,286046999.9,N
1593663735.7,286046998.1,N
1593663755.5,286047000.6,N
1593663775.3,286047001.9,N
1593663795.2,286046995.5,N
1593663815.0,286046993.6,N
1593663815.9,286046993.6,N
1593663835.7,286046991.9,N
1593663855.6,286046991.2,N
1593663875.4,286046983.9,Y
1593663895.3,286046990.1,P
1593663915.1,286046993.8,P
1593663916.0,286046993.8,P
1593663935.8,286046993.8,Y
1593663955.7,286047001.9,P
1593663975.5,286047001.9,N
1593663995.4,286047000.4,N
1593664015.2,286047001.7,N
1593664035.1,286047006.0,N
1593664036.0,286047006.0,N
1593664055.8,286046998.1,N
1593664075.6,286046997.4,N
1593664095.5,286046994.5,N
1593664115.3,286046994.2,N
1593664135.1,286046995.3,N
1593664155.9,286046999.3,N
1593664175.7,286047000.3,N
1593664195.6,286047004.1,N
1593664215.4,286047003.2,N
1593664235.2,286047001.7,N
1593664255.1,286047000.2,N
1593664256.0,286047000.2,N
1593664275.8,286046999.0,N
1593664295.6,286046995.8,N
1593664315.5,286046994.7,N
1593664335.3,286046992.5,N
1593664355.2,286046992.3,N
1593664375.9,286046993.0,N
1593664395.7,286046995.4,N
1593664415.6,286046997.9,N
1593664435.4,286046996.7,N
1593664455.3,286046996.9,N
1593664475.1,286047002.7,N
1593664495.8,286046999.3,N
1593664515.7,286046996.6,N
1593664535.5,286046993.6,N
1593664555.4,286046998.1,N
1593664575.2,286046996.1,N
1593664595.0,286046994.8,N
1593664595.9,286046994.8,N
1593664615.8,286046991.0,N
1593664635.6,286046990.3,N
1593664655.5,286046988.5,Y
1593664675.3,286046990.1,P
1593664695.1,286046990.2,N
1593664715.9,286046993.6,N
1593664735.7,286046994.6,N
1593664755.5,286046995.2,N
1593664775.4,286046999.1,N
1593664795.2,286047000.4,N
1593664815.0,286046995.9,N
1593664815.9,286046995.9,N
1593664835.8,286046994.2,N
1593664855.6,286046989.7,Y
1593664875.5,286046993.5,P
1593664895.3,286047002.0,N
1593664915.1,286047007.2,N
1593664935.9,286047006.4,N
1593664955.7,286047001.5,N
1593664975.5,286047005.5,N
1593664995.4,286047007.5,N
1593665015.2,286047003.9,N
1593665035.1,286047004.6,N
1593665036.0,286047004.6,N
1593665055.8,286047005.3,N
1593665075.6,286047002.6,N
1593665095.5,286047003.0,N
1593665115.3,286047005.7,N
1593665135.1,286047009.5,N
1593665155.9,286047018.3,Y
1593665175.7,286047018.8,P
1593665195.6,286047020.3,N
1593665215.4,286047021.0,N
1593665235.2,286047023.3,Y
1593665255.1,286047004.2,P
1593665256.0,286047004.2,N
1593665275.8,286047004.1,N
1593665295.7,286047007.2,N
1593665315.5,286047006.2,N
1593665335.3,286047005.1,N
1593665355.2,286047001.5,N
1593665375.9,286046998.1,N
1593665395.7,286046996.2,N
1593665415.6,286046997.7,N
1593665435.4,286046999.5,N
1593665455.3,286047002.8,N
1593665475.1,286047000.1,N
1593665476.0,286047000.1,N
1593665495.8,286047001.0,N
1593665515.7,286047003.1,N
1593665535.5,286047005.4,N
1593665555.3,286047004.9,N
1593665575.2,286047012.4,N
1593665595.0,286047014.0,Y
1593665595.9,286047014.0,P
1593665615.8,286047009.1,N
1593665635.6,286047002.2,N
1593665655.4,286047000.6,N
1593665675.3,286046994.9,N
1593665695.1,286046992.6,N
1593665715.9,286046990.0,N
1593665735.7,286046986.5,N
1593665755.5,286046986.2,N
1593665775.4,286046984.0,N
1593665795.2,286046988.1,N
1593665815.0,286046990.2,N
1593665815.9,286046990.2,N
1593665835.8,286046990.2,N
1593665855.6,286046992.8,N
1593665875.5,286046997.9,N
1593665895.3,286046991.0,N
1593665915.1,286046990.0,N
1593665935.9,286046992.3,N
1593665955.7,286046992.1,N
1593665975.6,286046991.9,N
1593665995.4,286046990.4,N
